Location: Newark
(45.2862°N, 9.8850°E)
Time: 02:34:36
(UTC+00:00)

N. Korean satellite - Pass Details

Date: 11 December 2019
Orbit: 454 x 507 km, 97.2° (Epoch: 23 January)

Event Time Altitude Azimuth Distance (km) Brightness Sun altitude
Rises 04:34:46 0° 23° (NNE) 2,546 10.4 -22.7°
Reaches altitude 10° 04:37:06 10° 37° (NE) 1,651 9.6 -22.3°
Maximum altitude 04:40:07 26° 95° (E) 973 8.8 -21.8°
Drops below altitude 10° 04:43:03 10° 153° (SSE) 1,614 9.7 -21.3°
Sets 04:45:18 0° 167° (SSE) 2,476 10.5 -20.9°
